Weather History for Whiteman AFB, MO

Change the Weather History Date:

Wednesday, May 22, 2013

  Actual Average Record
Temperature  
Mean Temperature 16 °C -  
Max Temperature 19 °C 23 °C 30 °C (1998)
Min Temperature 12 °C 12 °C 7 °C (2001)
Degree Days  
Heating Degree Days 6    
Growing Degree Days 10 (Base 50)    
Moisture  
Dew Point 13 °C    
Average Humidity 81    
Maximum Humidity 100    
Minimum Humidity 65    
Precipitation  
Precipitation 0.00 mm - - ()
Sea Level Pressure  
Sea Level Pressure 1009 hPa    
Wind  
Wind Speed 11 km/h (WSW)    
Max Wind Speed 26 km/h    
Max Gust Speed 35 km/h    
Visibility 16 kilometers    
Events      
Averages and records for this station are not official NWS values.
T = Trace of Precipitation, MM = Missing Value Source: NWS Daily Summary

Daily Weather History Graph

Daily Weather History Graph

Search for Another Location

Airport:

Trip Planner

Search our weather history database for the weather conditions in past years. The results will help you decide how hot, cold, wet, or windy it might be!

Date:

Astronomy

May. 22, 2013 Rise Set
Actual Time 5:56 AM CDT 8:25 PM CDT
Civil Twilight 5:25 AM CDT 8:56 PM CDT
Nautical Twilight 4:48 AM CDT 9:34 PM CDT
Astronomical Twilight 4:06 AM CDT 10:16 PM CDT
Moon 5:50 PM CDT (5/22) 3:59 AM CDT (5/22)
Length of Visible Light 15h 30m
Length of Day
14h 29m
Waxing Gibbous, 91% of the Moon is Illuminated
May 22
Waxing Gibbous
May 24
Full
May 31
Last Quarter
Jun 8
New
Jun 16
First Quarter

Hourly Weather History & Observations

Time (CDT) Temp. Dew Point Humidity Pressure Visibility Wind Dir Wind Speed Gust Speed Precip Events Conditions
12:58 AM 15.6 °C 15.6 °C 100% 1007.0 hPa 16.1 km SW 7.4 km/h / 2.1 m/s - N/A   Scattered Clouds
1:58 AM 13.9 °C 13.9 °C 100% 1007.0 hPa 16.1 km SSW 7.4 km/h / 2.1 m/s - N/A   Scattered Clouds
2:58 AM 13.7 °C 13.7 °C 100% 1006.7 hPa 16.1 km SW 7.4 km/h / 2.1 m/s - N/A   Clear
3:58 AM 13.6 °C 13.6 °C 100% 1006.3 hPa 16.1 km West 7.4 km/h / 2.1 m/s - N/A   Scattered Clouds
4:58 AM 12.7 °C 12.7 °C 100% 1006.6 hPa 16.1 km West 7.4 km/h / 2.1 m/s - N/A   Clear
5:58 AM 11.7 °C 11.7 °C 100% 1007.0 hPa 16.1 km SSW 9.3 km/h / 2.6 m/s - N/A   Clear
6:58 AM 13.3 °C 13.3 °C 100% 1007.7 hPa 16.1 km WSW 5.6 km/h / 1.5 m/s - N/A   Mostly Cloudy
7:58 AM 14.4 °C 14.3 °C 99% 1007.7 hPa 16.1 km West 11.1 km/h / 3.1 m/s - N/A   Scattered Clouds
8:58 AM 16.6 °C 13.6 °C 82% 1008.3 hPa 16.1 km West 13.0 km/h / 3.6 m/s - N/A   Partly Cloudy
9:58 AM 18.5 °C 12.8 °C 69% 1008.7 hPa 16.1 km West 20.4 km/h / 5.7 m/s - N/A   Partly Cloudy
10:28 AM 18.0 °C 13.0 °C 73% 1009.0 hPa 16.1 km West 18.5 km/h / 5.1 m/s - N/A   Mostly Cloudy
10:38 AM 18.0 °C 13.0 °C 73% 1009.0 hPa 16.1 km West 25.9 km/h / 7.2 m/s 35.2 km/h / 9.8 m/s N/A   Mostly Cloudy
10:58 AM 18.0 °C 12.4 °C 70% 1009.4 hPa 16.1 km West 22.2 km/h / 6.2 m/s - N/A   Mostly Cloudy
11:58 AM 18.1 °C 12.8 °C 71% 1009.8 hPa 16.1 km WSW 24.1 km/h / 6.7 m/s - N/A   Overcast
12:58 PM 18.1 °C 12.5 °C 70% 1010.1 hPa 16.1 km West 25.9 km/h / 7.2 m/s - N/A   Overcast
1:58 PM 18.3 °C 12.0 °C 67% 1010.5 hPa 16.1 km West 22.2 km/h / 6.2 m/s - N/A   Overcast
2:58 PM 18.1 °C 12.3 °C 69% 1010.8 hPa 16.1 km West 16.7 km/h / 4.6 m/s - N/A   Overcast
3:58 PM 18.3 °C 12.0 °C 67% 1010.5 hPa 16.1 km West 16.7 km/h / 4.6 m/s 33.3 km/h / 9.3 m/s N/A   Overcast
4:58 PM 19.0 °C 12.3 °C 65% 1010.5 hPa 16.1 km West 18.5 km/h / 5.1 m/s - N/A   Mostly Cloudy
5:58 PM 18.5 °C 12.3 °C 67% 1010.9 hPa 16.1 km West 16.7 km/h / 4.6 m/s - N/A   Overcast
6:58 PM 18.5 °C 11.9 °C 65% 1010.8 hPa 16.1 km WSW 13.0 km/h / 3.6 m/s - N/A   Mostly Cloudy
7:58 PM 17.9 °C 12.6 °C 71% 1011.5 hPa 16.1 km SW 11.1 km/h / 3.1 m/s - N/A   Mostly Cloudy
8:58 PM 16.8 °C 13.1 °C 79% 1011.8 hPa 16.1 km SW 7.4 km/h / 2.1 m/s - N/A   Mostly Cloudy
9:58 PM 16.6 °C 13.6 °C 82% 1012.8 hPa 14.5 km SW 9.3 km/h / 2.6 m/s - N/A   Overcast
10:58 PM 16.7 °C 13.6 °C 82% 1013.4 hPa 16.1 km WNW 9.3 km/h / 2.6 m/s - N/A   Overcast
11:58 PM 16.2 °C 14.4 °C 89% 1013.5 hPa 16.1 km WSW 3.7 km/h / 1.0 m/s - N/A   Overcast